Location: Key Biscayne
(25.6930°N, 80.1630°W)
Time: 18:38:45
(UTC-05:00)

N. Korean satellite - Pass Details

Date: 13 November 2017
Orbit: 461 x 513 km, 97.2° (Epoch: 11 December)

Event Time Altitude Azimuth Distance (km) Brightness Sun altitude
Rises 19:06:15 0° 193° (SSW) 2,469 10.5 -21.2°
Reaches altitude 10° 19:08:33 10° 208° (SSW) 1,600 9.7 -21.7°
Maximum altitude 19:11:21 23° 262° (W) 1,014 9.0 -22.3°
Drops below altitude 10° 19:14:11 10° 318° (NW) 1,615 9.6 -22.9°
Sets 19:16:31 0° 333° (NNW) 2,499 10.4 -23.5°
